• In Russia
  • List of Countries
  • For 7 days
  • Water Temperature
  • Satellite Maps
  • Weather Map
  • Weather Widgets
  • user-avatar
    Login

    Hourly Weather Kerns

    Today, 18 December, Tuesday

    Time Temperature Precipitation Wind Pressure Humidity
    00:00 +27°C° 0 mm 2 mps 754 mmHg 64%
    01:00 +27°C° 0 mm 2 mps 754 mmHg 63%
    02:00 +27°C° 0 mm 2 mps 754 mmHg 60%
    03:00 +27°C° 0 mm 2 mps 754 mmHg 58%
    04:00 +27°C° 0 mm 2 mps 754 mmHg 58%
    05:00 +27°C° 0 mm 2 mps 754 mmHg 59%
    06:00 +28°C° 0 mm 2 mps 754 mmHg 61%
    07:00 +28°C° 0 mm 3 mps 755 mmHg 63%
    08:00 +31°C° 0 mm 2 mps 755 mmHg 56%
    09:00 +35°C° 0 mm 2 mps 755 mmHg 50%
    10:00 +38°C° 0 mm 2 mps 755 mmHg 45%
    11:00 +38°C° 0 mm 2 mps 754 mmHg 46%
    12:00 +38°C° 0 mm 2 mps 754 mmHg 46%
    13:00 +38°C° 0 mm 2 mps 754 mmHg 47%
    14:00 +37°C° 0 mm 2 mps 754 mmHg 52%
    15:00 +35°C° 0 mm 2 mps 753 mmHg 57%
    16:00 +34°C° 0 mm 2 mps 753 mmHg 62%
    17:00 +32°C° 0 mm 1 mps 753 mmHg 65%
    18:00 +32°C° 0 mm 1 mps 754 mmHg 69%
    19:00 +29°C° 0 mm 0 mps 754 mmHg 72%
    20:00 +30°C° 0 mm 1 mps 754 mmHg 73%
    21:00 +30°C° 0 mm 1 mps 755 mmHg 74%
    22:00 +29°C° 0 mm 1 mps 755 mmHg 74%
    23:00 +29°C° 0 mm 1 mps 755 mmHg 73%

    Tomorrow, 19 December, Wednesday

    Time Temperature Precipitation Wind Pressure Humidity
    00:00 +30°C° 0 mm 1 mps 755 mmHg 73%
    01:00 +30°C° 0 mm 1 mps 755 mmHg 72%
    02:00 +29°C° 0 mm 1 mps 755 mmHg 73%
    03:00 +28°C° 0 mm 1 mps 755 mmHg 75%
    04:00 +28°C° 0 mm 1 mps 755 mmHg 77%
    05:00 +29°C° 0 mm 1 mps 755 mmHg 75%
    06:00 +29°C° 0 mm 2 mps 755 mmHg 74%
    07:00 +30°C° 0 mm 2 mps 756 mmHg 73%
    08:00 +32°C° 0 mm 2 mps 756 mmHg 66%
    09:00 +36°C° 0 mm 2 mps 756 mmHg 59%
    10:00 +38°C° 0 mm 2 mps 756 mmHg 51%
    11:00 +38°C° 0 mm 3 mps 755 mmHg 51%
    12:00 +38°C° 0 mm 3 mps 755 mmHg 50%
    13:00 +38°C° 0 mm 3 mps 755 mmHg 50%
    14:00 +38°C° 0.6 mm 3 mps 754 mmHg 55%
    15:00 +37°C° 0.6 mm 3 mps 754 mmHg 61%
    16:00 +36°C° 0.6 mm 3 mps 754 mmHg 66%
    17:00 +34°C° 1.3 mm 3 mps 754 mmHg 74%
    18:00 +32°C° 1.3 mm 2 mps 754 mmHg 81%
    19:00 +30°C° 1.3 mm 2 mps 755 mmHg 88%
    20:00 +30°C° 0.4 mm 2 mps 755 mmHg 89%
    21:00 +30°C° 0.4 mm 1 mps 756 mmHg 89%
    22:00 +29°C° 0.4 mm 1 mps 756 mmHg 90%
    23:00 +29°C° 0.3 mm 1 mps 756 mmHg 91%

    Day after tomorrow, 20 December, Thursday

    Time Temperature Precipitation Wind Pressure Humidity
    00:00 +29°C° 0.3 mm 1 mps 756 mmHg 92%
    01:00 +29°C° 0.3 mm 1 mps 756 mmHg 93%
    02:00 +28°C° 0.3 mm 1 mps 755 mmHg 93%
    03:00 +28°C° 0.3 mm 1 mps 755 mmHg 93%
    04:00 +28°C° 0.3 mm 1 mps 755 mmHg 93%
    05:00 +28°C° 0.1 mm 1 mps 755 mmHg 91%
    06:00 +29°C° 0.1 mm 1 mps 756 mmHg 89%
    07:00 +29°C° 0.1 mm 1 mps 756 mmHg 87%
    08:00 +32°C° 0 mm 1 mps 756 mmHg 77%
    09:00 +34°C° 0 mm 1 mps 756 mmHg 67%
    10:00 +37°C° 0 mm 1 mps 756 mmHg 57%
    11:00 +37°C° 0 mm 2 mps 756 mmHg 57%
    12:00 +37°C° 0 mm 2 mps 755 mmHg 57%
    13:00 +37°C° 0 mm 3 mps 755 mmHg 58%
    14:00 +36°C° 0.3 mm 3 mps 754 mmHg 62%
    15:00 +36°C° 0.3 mm 3 mps 753 mmHg 66%
    16:00 +36°C° 0.3 mm 3 mps 753 mmHg 70%
    17:00 +34°C° 0.2 mm 2 mps 753 mmHg 77%
    18:00 +31°C° 0.2 mm 2 mps 754 mmHg 85%
    19:00 +30°C° 0.2 mm 1 mps 754 mmHg 92%
    20:00 +30°C° 0.1 mm 1 mps 754 mmHg 93%
    21:00 +29°C° 0.1 mm 1 mps 755 mmHg 94%
    22:00 +29°C° 0.1 mm 1 mps 755 mmHg 94%
    23:00 +28°C° 0 mm 1 mps 755 mmHg 94%

    21 December, Friday

    Time Temperature Precipitation Wind Pressure Humidity
    00:00 +28°C° 0 mm 1 mps 755 mmHg 94%
    01:00 +28°C° 0 mm 1 mps 754 mmHg 95%
    02:00 +26°C° 0 mm 0 mps 754 mmHg 94%
    03:00 +25°C° 0 mm 0 mps 754 mmHg 93%
    04:00 +25°C° 0 mm 0 mps 754 mmHg 92%
    05:00 +26°C° 0 mm 0 mps 754 mmHg 90%
    06:00 +27°C° 0 mm 0 mps 755 mmHg 88%
    07:00 +27°C° 0 mm 0 mps 755 mmHg 85%
    08:00 +31°C° 0 mm 1 mps 755 mmHg 78%
    09:00 +33°C° 0 mm 1 mps 755 mmHg 70%
    10:00 +36°C° 0 mm 2 mps 755 mmHg 62%
    11:00 +37°C° 0.2 mm 2 mps 755 mmHg 61%
    12:00 +37°C° 0.2 mm 2 mps 754 mmHg 61%
    13:00 +38°C° 0.2 mm 3 mps 753 mmHg 60%
    14:00 +37°C° 0.5 mm 3 mps 753 mmHg 62%
    15:00 +37°C° 0.5 mm 3 mps 753 mmHg 64%
    16:00 +36°C° 0.5 mm 3 mps 752 mmHg 66%
    17:00 +35°C° 0.2 mm 3 mps 753 mmHg 73%
    18:00 +33°C° 0.2 mm 3 mps 753 mmHg 80%
    19:00 +31°C° 0.2 mm 3 mps 753 mmHg 87%
    20:00 +30°C° 0 mm 3 mps 754 mmHg 90%
    21:00 +30°C° 0 mm 3 mps 754 mmHg 92%
    22:00 +29°C° 0 mm 2 mps 755 mmHg 94%
    23:00 +29°C° 0.1 mm 2 mps 754 mmHg 93%

    22 December, Saturday

    Time Temperature Precipitation Wind Pressure Humidity
    00:00 +29°C° 0.1 mm 2 mps 754 mmHg 92%
    01:00 +29°C° 0.1 mm 2 mps 754 mmHg 91%
    02:00 +29°C° 0 mm 3 mps 754 mmHg 92%
    03:00 +29°C° 0 mm 3 mps 754 mmHg 92%
    04:00 +29°C° 0 mm 3 mps 753 mmHg 92%
    05:00 +29°C° 0 mm 3 mps 754 mmHg 91%
    06:00 +29°C° 0 mm 3 mps 754 mmHg 90%
    07:00 +30°C° 0 mm 3 mps 755 mmHg 89%
    08:00 +33°C° 0 mm 3 mps 755 mmHg 80%
    09:00 +35°C° 0 mm 3 mps 755 mmHg 71%
    10:00 +37°C° 0 mm 3 mps 755 mmHg 62%
    11:00 +38°C° 0 mm 3 mps 755 mmHg 56%
    12:00 +40°C° 0 mm 4 mps 754 mmHg 51%
    13:00 +41°C° 0 mm 4 mps 753 mmHg 46%
    14:00 +38°C° 0.2 mm 4 mps 753 mmHg 54%
    15:00 +37°C° 0.2 mm 4 mps 752 mmHg 61%
    16:00 +35°C° 0.2 mm 4 mps 752 mmHg 69%
    17:00 +34°C° 0 mm 4 mps 752 mmHg 75%
    18:00 +33°C° 0 mm 4 mps 753 mmHg 81%
    19:00 +32°C° 0 mm 4 mps 753 mmHg 87%
    20:00 +30°C° 0 mm 3 mps 753 mmHg 89%
    21:00 +30°C° 0 mm 3 mps 754 mmHg 90%
    22:00 +29°C° 0 mm 3 mps 754 mmHg 92%
    23:00 +29°C° 0.1 mm 3 mps 754 mmHg 91%

    23 December, Sunday

    Time Temperature Precipitation Wind Pressure Humidity
    00:00 +29°C° 0.1 mm 3 mps 754 mmHg 91%
    01:00 +29°C° 0.1 mm 3 mps 753 mmHg 90%
    02:00 +29°C° 0.3 mm 3 mps 753 mmHg 90%
    03:00 +29°C° 0.3 mm 3 mps 753 mmHg 90%
    04:00 +28°C° 0.3 mm 3 mps 753 mmHg 90%
    05:00 +29°C° 0.1 mm 3 mps 754 mmHg 89%
    06:00 +29°C° 0.1 mm 2 mps 754 mmHg 89%
    07:00 +29°C° 0.1 mm 2 mps 755 mmHg 88%
    08:00 +31°C° 0 mm 2 mps 755 mmHg 82%
    09:00 +34°C° 0 mm 2 mps 755 mmHg 75%
    10:00 +35°C° 0 mm 2 mps 755 mmHg 69%
    11:00 +36°C° 0.2 mm 2 mps 754 mmHg 65%
    12:00 +38°C° 0.2 mm 3 mps 754 mmHg 61%
    13:00 +39°C° 0.2 mm 3 mps 753 mmHg 57%
    14:00 +38°C° 0.3 mm 3 mps 753 mmHg 60%
    15:00 +37°C° 0.3 mm 3 mps 753 mmHg 64%
    16:00 +37°C° 0.3 mm 3 mps 752 mmHg 67%
    17:00 +35°C° 0.3 mm 2 mps 753 mmHg 74%
    18:00 +32°C° 0.3 mm 2 mps 753 mmHg 82%
    19:00 +30°C° 0.3 mm 2 mps 754 mmHg 89%
    20:00 +30°C° 0.1 mm 2 mps 754 mmHg 91%
    21:00 +30°C° 0.1 mm 2 mps 755 mmHg 93%
    22:00 +29°C° 0.1 mm 2 mps 755 mmHg 95%
    23:00 +29°C° 0.3 mm 2 mps 755 mmHg 95%
    Show more